Regional Weather Roundup
Issued by NWS

Home | Current Version | Previous Version | Text Only | Print | Product List | Glossary On
Versions: 1 2 3 4 5 6 7 8 9 10 11 12 13 14 15 16 17 18 19 20 21 22 23 24 25 26 27 28 29 30 31 32 33 34 35 36 37 38 39 40 41 42 43 44 45 46 47 48 49 50
367
ASUS43 KMPX 180310
RWRMN
WEATHER ROUNDUP FOR MINNESOTA
NATIONAL WEATHER SERVICE TWIN CITIES/CHANHASSEN MN
900 PM CST WED JAN 17 2018


NOTE: "FAIR" INDICATES FEW OR NO CLOUDS BELOW 12,000 FEET WITH NO
SIGNIFICANT WEATHER AND/OR OBSTRUCTIONS TO VISIBILITY. N/A MEANS
CURRENT SKY AND/OR WEATHER CONDITIONS ARE NOT AVAILABLE.

MNZ060>063-068>070-180400-
   Twin Cities Metro

CITY           SKY/WX    TMP DP  RH WIND       PRES   REMARKS
TWIN CITIES    FAIR      26  17  68 SW9       30.06F WCI  17
ST PAUL        FAIR      26  15  63 SW3       30.07F
CRYSTAL        FAIR      26  14  60 SW9       30.03F WCI  17
BLAINE         CLEAR     28  18  64 SW9       30.03F WCI  20
LAKEVILLE      FAIR      25  18  74 W13G21    30.06F WCI  13
EDEN PRAIRIE   FAIR      26  15  63 SW10      30.05F WCI  16
SOUTH ST PAUL  FAIR      27  16  63 SW8       30.06F WCI  19
LAKE ELMO      FAIR      27  18  69 SW8       30.05F WCI  18
$$
MNZ001>005-007-008-013>017-022>024-027-028-180400-
   Northwest Minnesota

CITY           SKY/WX    TMP DP  RH WIND       PRES   REMARKS
BEMIDJI        FAIR      29  22  74 SW12G18   29.85S WCI  19
HALLOCK        FAIR      30  25  80 SW14      29.77F WCI  20
ROSEAU         FAIR      30  25  80 SW16      29.75F WCI  19
WARROAD        FAIR      27  21  80 SW9       29.75F WCI  17
THIEF RVR FALL FAIR      25  21  85 SW15      29.85F WCI  13
CROOKSTON      FAIR      19  18  93 SW12      29.89F WCI   7
FOSSTON        FAIR      21  18  86 SW14      29.89F WCI   8
DETROIT LAKES  FAIR      32  23  69 W10       29.94F WCI  24
MOORHEAD       FAIR      28  21  74 SW12      29.96F WCI  18
PARK RAPIDS    FAIR      19  14  81 SW8       29.90F WCI   9
MAHNOMEN       FAIR      20  17  86 SW13      29.91S WCI   7
$$
MNZ006-009>011-018-025>026-180400-
   North Central Minnesota

CITY           SKY/WX    TMP DP  RH WIND       PRES   REMARKS
BAUDETTE       FAIR      27  21  78 SW10G23   29.74F WCI  17
FLAG ISLAND    FAIR      23  19  86 SW14      29.70F WCI  11
INTL FALLS     FAIR      21  14  74 SW6       29.77F WCI  13
WASKISH        FAIR      27  21  80 SW15G21   29.82R WCI  15
BIG FORK       FAIR      27  19  74 SW9       29.81S WCI  17
LONGVILLE      FAIR      25  18  74 SW6       29.88F WCI  18
GRAND RAPIDS   FAIR      24  17  74 SW6       29.86F WCI  17
CRANE LAKE     FAIR      12  10  92 CALM      29.81S
ORR            FAIR      23  14  68 CALM      29.77F
COOK           FAIR      18  12  79 CALM      29.80F
WALKER         FAIR      28  20  72 W12       29.86F WCI  18
$$
MNZ012-019>021-037-180400-
   Northeast Minnesota

CITY           SKY/WX    TMP DP  RH WIND       PRES   REMARKS
DULUTH         FAIR      23  13  65 W16       29.83F WCI  10
ELY            FAIR      19  12  73 SW5       29.79F WCI  13
HIBBING        FAIR      21  14  74 CALM      29.82F
EVELETH        FAIR      20  11  68 SW5       29.83S WCI  13
DULUTH HARBOR  FAIR      25  14  63 SW13      29.89F WCI  13
TWO HARBORS    FAIR      27  16  63 SW6       29.81F WCI  20
SILVER BAY     FAIR      25  12  58 SW5       29.79F WCI  19
GRAND MARAIS     N/A     22  13  68 CALM      29.80F
G MARAIS ARPRT FAIR      21  10  63 W8        29.73F WCI  12
$$
MNZ029>031-032-039>041-046>048-054>057-064-180400-
   West Central Minnesota

CITY           SKY/WX    TMP DP  RH WIND       PRES   REMARKS
FERGUS FALLS   FAIR      21  18  86 CALM      30.00S
WHEATON        CLOUDY    30  21  69 W14       30.03F WCI  20
MORRIS         CLOUDY    25  19  80 W7        30.01F WCI  17
ALEXANDRIA     FAIR      28  20  71 W12       29.99F WCI  18
ELBOW LAKE     FAIR      18  15  90 W6        30.00F FOG     WCI  10
WADENA         FAIR      27  19  74 W13       29.93F WCI  16
GLENWOOD       FAIR      25  19  80 SW12      30.00F WCI  14
APPLETON       CLOUDY    25  19  80 SW9       30.04F WCI  15
BENSON         CLOUDY    23  18  80 W7        30.04F WCI  15
ORTONVILLE     CLEAR     30  21  69 W10       30.04F WCI  21
MADISON        CLEAR     30  21  69 W10       30.05F WCI  21
WILLMAR        FAIR      23  18  80 SW12      30.06F WCI  12
$$
MNZ033>034-036-042>043-049>051-058-059-180400-
   Central Minnesota

CITY           SKY/WX    TMP DP  RH WIND       PRES   REMARKS
ST CLOUD       FAIR      18  13  80 W3        30.00F
SAUK CENTRE      N/A     25  19  77 W9        30.00S WCI  15
PAYNESVILLE    FAIR      26  20  78 SW13G18   30.01F WCI  15
AITKIN         FAIR      25  16  68 SW8       29.90  WCI  16
PINE RIVER     FAIR      23  18  80 SW3       29.94F
BRAINERD       FAIR      25  17  72 SW12      29.93F WCI  14
STAPLES        FAIR      27  19  74 W12       29.93F WCI  16
LONG PRAIRIE   FAIR      23  19  86 S9        29.98F WCI  13
LITTLE FALLS   FAIR      21  12  68 SW3       29.98F
LITCHFIELD     FAIR      25  19  80 SW5       30.04S WCI  19
BUFFALO        FAIR      24  16  73 SW8       30.04F WCI  15
MAPLE LAKE     FAIR      26  19  75 MISG      30.02F
HUTCHINSON     FAIR      25  18  74 SW8       30.06F WCI  16
$$
MNZ037-044-045-052-053-180400-
   East Central Minnesota

CITY           SKY/WX    TMP DP  RH WIND       PRES   REMARKS
PRINCETON      FAIR      25  18  74 SW7       29.99F WCI  17
MORA           FAIR      23  14  68 SW6       29.98F WCI  16
CAMBRIDGE      FAIR      28  18  64 SW8       30.00S WCI  20
RUSH CITY      FAIR      26  16  68 SW8       29.98F WCI  17
MOOSE LAKE     FAIR      23  14  68 SW7       29.89F WCI  15
HINCKLEY       FAIR      25  18  74 SW10      29.95F WCI  15
CLOQUET        FAIR      25  12  58 W12G17    29.86F WCI  14
MCGREGOR       FAIR      27  19  74 SW6       29.90F WCI  20
$$
MNZ071>073-080-081-089-090-097-098-180400-
   Southwest Minnesota

CITY           SKY/WX    TMP DP  RH WIND       PRES   REMARKS
MONTEVIDEO     CLOUDY    27  18  69 W9        30.05F WCI  17
GRANITE FALLS  CLOUDY    25  18  77 SW9       30.07F WCI  15
CANBY          CLOUDY    31  21  67 SW17G23   30.07F WCI  19
MARSHALL       CLOUDY    28  20  71 W22       30.07F WCI  14
REDWOOD FALLS  CLOUDY    23  16  74 SW13      30.08F WCI  11
OLIVIA         CLOUDY    21  16  79 SW9       30.07F WCI  11
PIPESTONE      CLOUDY    21  16  79 SW12      30.11F WCI   9
WINDOM         CLOUDY    25   9  50 SW12      30.13S WCI  14
WORTHINGTON    CLOUDY    24  17  74 SW18      30.13S WCI  10
JACKSON        CLOUDY    27  18  69 SW18      30.13S WCI  13
SLAYTON        CLOUDY    28  19  67 SW13G20   30.11S WCI  17
$$
MNZ065>067-074>077-082>085-091>093-180400-
   South Central Minnesota

CITY           SKY/WX    TMP DP  RH WIND       PRES   REMARKS
MANKATO        FAIR      24  17  74 SW13      30.10  WCI  12
NEW ULM        CLOUDY    21  14  73 SW9       30.09F WCI  11
ST JAMES       CLOUDY    23  18  80 SW10      30.13F WCI  12
FAIRMONT       CLOUDY    24  17  74 W7        30.15R WCI  16
GLENCOE        FAIR      25  18  74 SW9       30.06F WCI  15
FARIBAULT      FAIR      25  16  68 S8        30.09F WCI  16
OWATONNA       FAIR      21  16  79 SW16      30.10F WCI   7
WASECA         FAIR      21  14  73 SW10      30.12F WCI  10
ALBERT LEA     FAIR      23  14  68 SW14G21   30.12F WCI  11
$$
MNZ078>079-086>088-094>096-180400-
   Southeast Minnesota

CITY           SKY/WX    TMP DP  RH WIND       PRES   REMARKS
ROCHESTER      FAIR      20  13  74 SW21      30.10F WCI   4
RED WING       FAIR      27  12  54 W9        30.08F WCI  17
STANTON        FAIR      26  17  69 SW14      30.07F WCI  14
DODGE CENTER   FAIR      21  16  79 SW20      30.09F WCI   6
WINONA         FAIR      25  14  63 CALM      30.12S
AUSTIN         FAIR      19  12  73 SW13      30.13F WCI   7
PRESTON        FAIR      20  12  70 SW16G26   30.12F WCI   6
$$
ABBREVIATIONS USED IN REMARKS
   TC - TEMPERATURES IN CELSIUS
  WCI - WIND CHILL INDEX
   HX - HEAT INDEX
  VSB - VISIBILITY
$$




USA.gov is the U.S. government's official web portal to all federal, state and local government web resources and services.